Voltar ao catálogo

STARLINK-35966

AtivoComunicaçõesVLEO
NORAD 66821·PAYLOAD·🇺🇸 United States

Lançado Dec 2, 2025 de Vandenberg Space Force Base

Loading…

Próximas Passagens (próximas 24 horas)

TLE

AtualizadoSource: CelesTrak SupGP

Época: Sep 15, 2026, 03:20 UTC

1 66821C 25280A   26258.13937500 -.00011056  00000+0 -92687-3 0  2588
2 66821  70.0012 216.9751 0003084 272.9735 277.1463 14.98323167    11

Acompanhe STARLINK-35966 em tempo real com AllMySat

Download on the App Store